Location: Kalberh�ni
(46.4610°N, 7.2453°E)
Time: 09:27:08
(UTC+00:00)

Cosmos 1455 - Pass Details

Date: 26 October 2021
Orbit: 496 x 520 km, 82.5° (Epoch: 27 November)

Event Time Altitude Azimuth Distance (km) Brightness Sun altitude
Rises 17:12:07 0° 141° (SE) 2,620 5.5 -8.7°
Reaches altitude 10° 17:15:13 10° 113° (ESE) 1,734 4.4 -9.2°
Enters shadow 17:16:55 13° 86° (E) 1,552 3.9 -9.5°
